Regional Weather Roundup
Issued by NWS

Home | Current Version | Previous Version | Graphics & Text | Print | Product List | Glossary On
Versions: 1 2 3 4 5 6 7 8 9 10 11 12 13 14 15 16 17 18 19 20 21 22 23 24 25 26 27 28 29 30 31 32 33 34 35 36 37 38 39 40 41 42 43 44 45 46 47 48 49 50
000
ASUS43 KBIS 200002
RWRND

NORTH DAKOTA REGIONAL WEATHER ROUNDUP
NATIONAL WEATHER SERVICE BISMARCK ND
600 PM CST SUN FEB 19 2017

NOTE: "FAIR" INDICATES FEW OR NO CLOUDS BELOW 12,000 FEET WITH NO
SIGNIFICANT WEATHER AND/OR OBSTRUCTIONS TO VISIBILITY.


NDZ001>003-009>011-017-200100-
NORTHWEST NORTH DAKOTA

CITY           SKY/WX    TMP DP  RH WIND       PRES   REMARKS
WILLISTON      FAIR      36  32  85 N5        29.49S
6HR MIN TEMP:  35; 6HR MAX TEMP:  39;

MINOT          FAIR      37  34  89 E5        29.50S
$$

NDZ018>021-031>035-040>046-200100-
SOUTHWEST NORTH DAKOTA

CITY           SKY/WX    TMP DP  RH WIND       PRES   REMARKS
BISMARCK       FAIR      38  35  89 E6        29.51R
6HR MIN TEMP:  38; 6HR MAX TEMP:  43;

DICKINSON      FAIR      47  37  68 SE9       29.44R
GARRISON         N/A     37  33  85 SE6       29.48R
6HR MIN TEMP:  37; 6HR MAX TEMP:  42;

HETTINGER ARPT PTCLDY    54  37  52 SE9       29.46R
$$

NDZ004>008-012>016-024-026-027-054-200100-
NORTHEAST NORTH DAKOTA

CITY           SKY/WX    TMP DP  RH WIND       PRES   REMARKS
GRAND FORKS    CLOUDY    43  33  68 SE12      29.62R
GRND FRKS AFB  CLOUDY    40  35  85 SE8       29.61S
DEVILS LAKE    FAIR      38  36  92 SE10      29.56F
$$

NDZ022-023-025-028>030-036>039-047>053-200100-
SOUTHEAST NORTH DAKOTA

CITY           SKY/WX    TMP DP  RH WIND       PRES   REMARKS
FARGO          PTCLDY    53  45  74 SE17      29.62R
6HR MIN TEMP:  49; 6HR MAX TEMP:  56;

JAMESTOWN      FAIR      43  41  93 SE8       29.54F
$$




USA.gov is the U.S. government's official web portal to all federal, state and local government web resources and services.